Yerevan Zvartnots, Armenia

3:25 PM +04 on February 21, 2017 (GMT +0400)
Zvartnots

Weather History for UDYZ - November, 2012

Change the Weather History Date:

Tuesday, November 27, 2012

  Actual Average Record
Temperature  
Mean Temperature 42 °F -  
Max Temperature 55 °F - - ()
Min Temperature 28 °F - - ()
Degree Days  
Heating Degree Days 24    
Moisture  
Dew Point 31 °F    
Average Humidity 73    
Maximum Humidity 100    
Minimum Humidity 35    
Precipitation  
Precipitation 0.00 in - - ()
Sea Level Pressure  
Sea Level Pressure 30.09 in    
Wind  
Wind Speed 2 mph ()    
Max Wind Speed 4 mph    
Max Gust Speed -    
Visibility 4.0 miles    
Events      
T = Trace of Precipitation, MM = Missing Value Source: Averaged Metar Reports

Daily Weather History Graph

Daily Weather History Graph

Search for Another Location

Airport or City:

Trip Planner

Search our weather history database for the weather conditions in past years. The results will help you decide how hot, cold, wet, or windy it might be!

Date:

Astronomy

Nov. 27, 2012 Rise Set
Actual Time 8:01 AM +04 5:38 PM +04
Civil Twilight 7:31 AM +04 6:08 PM +04
Nautical Twilight 6:58 AM +04 6:41 PM +04
Astronomical Twilight 6:25 AM +04 7:14 PM +04
Moon 4:54 PM +04 (11/27) 6:46 AM +04 (11/27)
Length of Visible Light 10h 36m
Length of Day
9h 37m
Waxing Gibbous, 99% of the Moon is Illuminated
Nov 27
Waxing Gibbous
Nov 28
Full
Dec 6
Last Quarter
Dec 13
New
Dec 20
First Quarter

Hourly Weather History & Observations

Time (+04) Temp. Windchill Dew Point Humidity Pressure Visibility Wind Dir Wind Speed Gust Speed Precip Events Conditions
12:00 AM 37.4 °F 33.9 °F 35.6 °F 93% 30.06 in 3.7 mi Variable 4.5 mph - N/A   Partly Cloudy
12:30 AM 35.6 °F - 33.8 °F 93% 30.06 in 3.7 mi Variable 2.2 mph - N/A   Partly Cloudy
1:00 AM 35.6 °F - 33.8 °F 93% 30.06 in 3.7 mi Variable 2.2 mph - N/A   Clear
1:30 AM 37.4 °F 33.9 °F 35.6 °F 93% 30.06 in 2.2 mi Variable 4.5 mph - N/A   Clear
2:00 AM 37.4 °F 33.9 °F 35.6 °F 93% 30.06 in 2.2 mi Variable 4.5 mph - N/A   Clear
2:30 AM 37.4 °F 33.9 °F 35.6 °F 93% 30.06 in 2.2 mi Variable 4.5 mph - N/A   Clear
3:00 AM 35.6 °F - 33.8 °F 93% 30.09 in 2.2 mi Calm Calm - N/A   Clear
3:30 AM 37.4 °F - 35.6 °F 93% 30.09 in 1.1 mi Variable 2.2 mph - N/A   Clear
4:00 AM 35.6 °F - 33.8 °F 93% 30.09 in 2.2 mi Calm Calm - N/A   Clear
4:30 AM 33.8 °F - 32.0 °F 93% 30.09 in 2.2 mi Calm Calm - N/A   Clear
5:00 AM 33.8 °F - 30.2 °F 87% 30.09 in 2.2 mi Calm Calm - N/A   Partly Cloudy
5:30 AM 32.0 °F 27.6 °F 30.2 °F 93% 30.09 in 2.2 mi Variable 4.5 mph - N/A   Clear
6:00 AM 32.0 °F - 32.0 °F 100% 30.09 in 2.2 mi Variable 2.2 mph - N/A   Clear
6:30 AM 33.8 °F - 30.2 °F 87% 30.09 in 2.2 mi Variable 2.2 mph - N/A   Clear
7:00 AM 28.4 °F - 26.6 °F 93% 30.09 in 2.2 mi Calm Calm - N/A   Scattered Clouds
7:30 AM 28.4 °F - 28.4 °F 100% 30.09 in 1.0 mi Calm Calm - N/A   Scattered Clouds
8:00 AM 30.2 °F - 30.2 °F 100% 30.09 in 1.0 mi Calm Calm - N/A   Scattered Clouds
8:30 AM 30.2 °F - 30.2 °F 100% 30.09 in 1.4 mi Calm Calm - N/A   Scattered Clouds
9:00 AM 30.2 °F - 30.2 °F 100% 30.09 in 1.4 mi Variable 2.2 mph - N/A   Scattered Clouds
9:30 AM 35.6 °F - 33.8 °F 93% 30.12 in 1.4 mi Variable 2.2 mph - N/A   Scattered Clouds
10:00 AM 41.0 °F - 35.6 °F 81% 30.12 in 1.4 mi Calm Calm - N/A   Partly Cloudy
10:30 AM 44.6 °F - 35.6 °F 71% 30.12 in 2.2 mi Calm Calm - N/A   Partly Cloudy
11:00 AM 44.6 °F - 37.4 °F 76% 30.12 in 2.2 mi Variable 2.2 mph - N/A   Clear
12:00 PM 48.2 °F - 37.4 °F 66% 30.09 in 3.7 mi Variable 2.2 mph - N/A   Clear
12:30 PM 50.0 °F - 37.4 °F 62% 30.09 in 3.7 mi Variable 2.2 mph - N/A   Clear
1:00 PM 51.8 °F - 35.6 °F 54% 30.09 in 6.2 mi Variable 2.2 mph - N/A   Clear
1:30 PM 51.8 °F - 35.6 °F 54% 30.06 in 6.2 mi Calm Calm - N/A   Clear
2:00 PM 53.6 °F - 28.4 °F 38% 30.06 in 6.2 mi Variable 4.5 mph - N/A   Clear
2:30 PM 55.4 °F - 28.4 °F 36% 30.06 in 6.2 mi Variable 2.2 mph - N/A   Clear
3:00 PM 55.4 °F - 28.4 °F 36% 30.06 in 6.2 mi Calm Calm - N/A   Clear
3:30 PM 55.4 °F - 28.4 °F 36% 30.06 in 6.2 mi Variable 2.2 mph - N/A   Partly Cloudy
4:00 PM 53.6 °F - 26.6 °F 35% 30.06 in 6.2 mi Variable 4.5 mph - N/A   Partly Cloudy
4:30 PM 53.6 °F - 26.6 °F 35% 30.06 in 6.2 mi Variable 4.5 mph - N/A   Partly Cloudy
5:00 PM 53.6 °F - 28.4 °F 38% 30.04 in 6.2 mi Calm Calm - N/A   Partly Cloudy
5:30 PM 51.8 °F - 28.4 °F 41% 30.06 in 6.2 mi Variable 2.2 mph - N/A   Partly Cloudy
6:00 PM 48.2 °F - 28.4 °F 46% 30.06 in 6.2 mi SE 4.5 mph - N/A   Partly Cloudy
6:30 PM 44.6 °F - 28.4 °F 53% 30.06 in 6.2 mi Calm Calm - N/A   Partly Cloudy
7:00 PM 42.8 °F - 28.4 °F 57% 30.09 in 6.2 mi Calm Calm - N/A   Partly Cloudy
7:30 PM 41.0 °F - 28.4 °F 61% 30.09 in 6.2 mi Calm Calm - N/A   Partly Cloudy
8:00 PM 39.2 °F - 28.4 °F 65% 30.09 in 6.2 mi Variable 2.2 mph - N/A   Scattered Clouds
8:30 PM 37.4 °F - 28.4 °F 70% 30.09 in 6.2 mi Calm Calm - N/A   Scattered Clouds
9:30 PM 37.4 °F - 28.4 °F 70% 30.12 in 6.2 mi Calm Calm - N/A   Partly Cloudy
10:00 PM 35.6 °F - 26.6 °F 70% 30.12 in 6.2 mi Variable 2.2 mph - N/A   Clear
10:30 PM 35.6 °F - 28.4 °F 75% 30.12 in 6.2 mi Calm Calm - N/A   Clear
11:00 PM 33.8 °F - 26.6 °F 75% 30.15 in 6.2 mi Calm Calm - N/A   Clear
11:30 PM 33.8 °F - 26.6 °F 75% 30.15 in 6.2 mi Calm Calm - N/A   Clear